| time (UTC) | temp F | wind direction | speed knots | gust knots | rain 1hr in | rain 24hr in | rain mn in | humidity % | barometer mb |
| 20260504174202 | 70 | 0 | 53.9 | 60.8 | 0.00 | 0.00 | 0.00 | ||
| 20260504173602 | 71 | 0 | 53.9 | 61.7 | 0.00 | 0.00 | 0.00 | ||
| 20260504173002 | 70 | 0 | 53.9 | 60.8 | 0.00 | 0.00 | 0.00 | ||
| 20260504172403 | 70 | 0 | 53.9 | 60.8 | 0.00 | 0.00 | 0.00 | ||
| 20260504171802 | 70 | 0 | 53.9 | 60.8 | 0.00 | 0.00 | 0.00 | ||
| 20260504171202 | 68 | 0 | 53.9 | 59.1 | 0.00 | 0.00 | 0.00 | ||
| 20260504170602 | 68 | 0 | 53.9 | 59.1 | 0.00 | 0.00 | 0.00 | ||
| 20260504150602 | 65 | 0 | 52.1 | 56.5 | 0.00 | 0.00 | 0.00 | ||
| 20260504141202 | 63 | 0 | 51.3 | 54.7 | 0.00 | 0.00 | 0.00 | ||
| 20260504140602 | 62 | 0 | 51.3 | 53.9 | 0.00 | 0.00 | 0.00 | ||
| 20260504130602 | 58 | 0 | 51.3 | 50.4 | 0.00 | 0.00 | 0.00 | ||
| 20260504110601 | 42 | 0 | 50.4 | 36.5 | 0.00 | 0.00 | 0.00 | ||
| 20260504100602 | 39 | 0 | 51.3 | 33.9 | 0.00 | 0.00 | 0.00 | ||
| 20260504081802 | 38 | 0 | 51.3 | 33.0 | 0.00 | 0.00 | 0.00 | ||
| 20260504081202 | 38 | 0 | 51.3 | 33.0 | 0.00 | 0.00 | 0.00 | ||
| 20260504080601 | 38 | 0 | 51.3 | 33.0 | 0.00 | 0.00 | 0.00 | ||
| 20260504050002 | 40 | 0 | 52.1 | 34.8 | 0.00 | 0.00 | 0.00 | ||
| 20260504045402 | 41 | 0 | 52.1 | 35.6 | 0.00 | 0.00 | 0.00 | ||
| 20260504044802 | 41 | 0 | 52.1 | 35.6 | 0.00 | 0.00 | 0.00 | ||
| 20260504044201 | 41 | 0 | 52.1 | 35.6 | 0.00 | 0.00 | 0.00 | ||
| 20260504043601 | 41 | 0 | 52.1 | 35.6 | 0.00 | 0.00 | 0.00 | ||
| 20260504043002 | 42 | 0 | 52.1 | 36.5 | 0.00 | 0.00 | 0.00 | ||
| 20260504042402 | 42 | 0 | 52.1 | 36.5 | 0.00 | 0.00 | 0.00 | ||
| 20260504041801 | 42 | 0 | 52.1 | 36.5 | 0.00 | 0.00 | 0.00 | ||
| 20260504041202 | 43 | 0 | 52.1 | 37.4 | 0.00 | 0.00 | 0.00 | ||
| 20260504040601 | 43 | 0 | 52.1 | 37.4 | 0.00 | 0.00 | 0.00 | ||
| 20260504040002 | 43 | 0 | 53.0 | 37.4 | 0.00 | 0.00 | 0.00 | ||
| 20260504035402 | 42 | 0 | 53.0 | 36.5 | 0.00 | 0.00 | 0.00 | ||
| 20260504034801 | 44 | 0 | 53.0 | 38.2 | 0.00 | 0.00 | 0.00 | ||
| 20260504034202 | 44 | 0 | 53.0 | 38.2 | 0.00 | 0.00 | 0.00 | ||
| 20260504033601 | 45 | 0 | 53.0 | 39.1 | 0.00 | 0.00 | 0.00 | ||
| 20260504033002 | 44 | 0 | 53.0 | 38.2 | 0.00 | 0.00 | 0.00 | ||
| 20260504032402 | 44 | 0 | 53.0 | 38.2 | 0.00 | 0.00 | 0.00 | ||
| 20260504031801 | 44 | 0 | 53.0 | 38.2 | 0.00 | 0.00 | 0.00 | ||
| 20260504031202 | 45 | 0 | 53.0 | 39.1 | 0.00 | 0.00 | 0.00 | ||
| 20260504030602 | 45 | 0 | 53.0 | 39.1 | 0.00 | 0.00 | 0.00 | ||
| 20260504030002 | 44 | 0 | 53.0 | 38.2 | 0.00 | 0.00 | 0.00 | ||
| 20260504025402 | 45 | 0 | 53.0 | 39.1 | 0.00 | 0.00 | 0.00 | ||
| 20260504024801 | 46 | 0 | 53.0 | 40.0 | 0.00 | 0.00 | 0.00 | ||
| 20260504024201 | 46 | 0 | 53.0 | 40.0 | 0.00 | 0.00 | 0.00 | ||
| 20260504023601 | 46 | 0 | 53.0 | 40.0 | 0.00 | 0.00 | 0.00 | ||
| 20260504023002 | 47 | 0 | 53.0 | 40.8 | 0.00 | 0.00 | 0.00 | ||
| 20260504022401 | 48 | 0 | 53.0 | 41.7 | 0.00 | 0.00 | 0.00 | ||
| 20260504021802 | 47 | 0 | 53.0 | 40.8 | 0.00 | 0.00 | 0.00 | ||
| 20260504021202 | 46 | 0 | 53.0 | 40.0 | 0.00 | 0.00 | 0.00 | ||
| 20260504020601 | 46 | 0 | 53.0 | 40.0 | 0.00 | 0.00 | 0.00 | ||
| 20260504020002 | 46 | 0 | 53.0 | 40.0 | 0.00 | 0.00 | 0.00 | ||
| 20260504015402 | 45 | 0 | 53.0 | 39.1 | 0.00 | 0.00 | 0.00 | ||
| 20260504014801 | 46 | 0 | 53.0 | 40.0 | 0.00 | 0.00 | 0.00 | ||
| 20260504014202 | 46 | 0 | 53.0 | 40.0 | 0.00 | 0.00 | 0.00 | ||
| 20260504013602 | 47 | 0 | 53.0 | 40.8 | 0.00 | 0.00 | 0.00 | ||
| 20260504013002 | 48 | 0 | 53.0 | 41.7 | 0.00 | 0.00 | 0.00 | ||
| 20260504012402 | 49 | 0 | 53.0 | 42.6 | 0.00 | 0.00 | 0.00 | ||
| 20260504011802 | 49 | 0 | 53.0 | 42.6 | 0.00 | 0.00 | 0.00 | ||
| 20260504011201 | 49 | 0 | 53.0 | 42.6 | 0.00 | 0.00 | 0.00 | ||
| 20260504010601 | 49 | 0 | 53.0 | 42.6 | 0.00 | 0.00 | 0.00 | ||
| 20260504010002 | 49 | 0 | 53.0 | 42.6 | 0.00 | 0.00 | 0.00 | ||
| 20260504005402 | 48 | 0 | 53.0 | 41.7 | 0.00 | 0.00 | 0.00 | ||
| 20260504004802 | 48 | 0 | 53.9 | 41.7 | 0.00 | 0.00 | 0.00 | ||
| 20260504004202 | 48 | 0 | 53.9 | 41.7 | 0.00 | 0.00 | 0.00 | ||
| 20260504003602 | 49 | 0 | 53.9 | 42.6 | 0.00 | 0.00 | 0.00 | ||
| 20260504003001 | 50 | 0 | 53.9 | 43.4 | 0.00 | 0.00 | 0.00 | ||
| 20260504002402 | 52 | 0 | 53.9 | 45.2 | 0.00 | 0.00 | 0.00 | ||
| 20260504001802 | 52 | 0 | 53.9 | 45.2 | 0.00 | 0.00 | 0.00 | ||
| 20260504001202 | 52 | 0 | 53.9 | 45.2 | 0.00 | 0.00 | 0.00 | ||
| 20260504000601 | 52 | 0 | 53.9 | 45.2 | 0.00 | 0.00 | 0.00 | ||
| 20260504000002 | 53 | 0 | 53.9 | 46.1 | 0.00 | 0.00 | 0.00 | ||
| 20260503235402 | 53 | 0 | 53.9 | 46.1 | 0.00 | 0.00 | 0.00 | ||
| 20260503234802 | 53 | 0 | 53.9 | 46.1 | 0.00 | 0.00 | 0.00 | ||
| 20260503234203 | 54 | 0 | 53.9 | 46.9 | 0.00 | 0.00 | 0.00 | ||
| 20260503233602 | 54 | 0 | 53.9 | 46.9 | 0.00 | 0.00 | 0.00 | ||
| 20260503232402 | 54 | 0 | 53.9 | 46.9 | 0.00 | 0.00 | 0.00 | ||
| 20260503231802 | 54 | 0 | 53.9 | 46.9 | 0.00 | 0.00 | 0.00 | ||
| 20260503231202 | 54 | 0 | 53.9 | 46.9 | 0.00 | 0.00 | 0.00 | ||
| 20260503230602 | 55 | 0 | 53.9 | 47.8 | 0.00 | 0.00 | 0.00 | ||
| 20260503230002 | 55 | 0 | 53.9 | 47.8 | 0.00 | 0.00 | 0.00 | ||
| 20260503225402 | 56 | 0 | 53.9 | 48.7 | 0.00 | 0.00 | 0.00 | ||
| 20260503224802 | 56 | 0 | 53.9 | 48.7 | 0.00 | 0.00 | 0.00 | ||
| 20260503224202 | 56 | 0 | 53.9 | 48.7 | 0.00 | 0.00 | 0.00 | ||
| 20260503223602 | 57 | 0 | 53.9 | 49.5 | 0.00 | 0.00 | 0.00 | ||
| 20260503223002 | 57 | 0 | 53.9 | 49.5 | 0.00 | 0.00 | 0.00 | ||
| 20260503222402 | 57 | 0 | 53.9 | 49.5 | 0.00 | 0.00 | 0.00 | ||
| 20260503221802 | 57 | 0 | 53.9 | 49.5 | 0.00 | 0.00 | 0.00 | ||
| 20260503221202 | 58 | 0 | 53.9 | 50.4 | 0.00 | 0.00 | 0.00 | ||
| 20260503220602 | 58 | 0 | 53.9 | 50.4 | 0.00 | 0.00 | 0.00 | ||
| 20260503220001 | 59 | 0 | 53.9 | 51.3 | 0.00 | 0.00 | 0.00 | ||
| 20260503215402 | 58 | 0 | 53.9 | 50.4 | 0.00 | 0.00 | 0.00 | ||
| 20260503214202 | 58 | 0 | 53.9 | 50.4 | 0.00 | 0.00 | 0.00 | ||
| 20260503213602 | 58 | 0 | 53.9 | 50.4 | 0.00 | 0.00 | 0.00 | ||
| 20260503213002 | 58 | 0 | 53.9 | 50.4 | 0.00 | 0.00 | 0.00 | ||
| 20260503212402 | 58 | 0 | 53.9 | 50.4 | 0.00 | 0.00 | 0.00 | ||
| 20260503211802 | 59 | 0 | 53.9 | 51.3 | 0.00 | 0.00 | 0.00 | ||
| 20260503211201 | 59 | 0 | 53.9 | 51.3 | 0.00 | 0.00 | 0.00 | ||
| 20260503210602 | 58 | 0 | 53.9 | 50.4 | 0.00 | 0.00 | 0.00 | ||
| 20260503210002 | 58 | 0 | 53.9 | 50.4 | 0.00 | 0.00 | 0.00 | ||
| 20260503205401 | 59 | 0 | 53.9 | 51.3 | 0.00 | 0.00 | 0.00 | ||
| 20260503204802 | 58 | 0 | 53.9 | 50.4 | 0.00 | 0.00 | 0.00 | ||
| 20260503204201 | 58 | 0 | 53.9 | 50.4 | 0.00 | 0.00 | 0.00 | ||
| 20260503203602 | 58 | 0 | 53.9 | 50.4 | 0.00 | 0.00 | 0.00 | ||
| 20260503203002 | 58 | 0 | 53.9 | 50.4 | 0.00 | 0.00 | 0.00 | ||
| 20260503202402 | 58 | 0 | 53.9 | 50.4 | 0.00 | 0.00 | 0.00 | ||
| 20260503201801 | 58 | 0 | 53.9 | 50.4 | 0.00 | 0.00 | 0.00 | ||
| 20260503201202 | 59 | 0 | 53.9 | 51.3 | 0.00 | 0.00 | 0.00 | ||
| 20260503200601 | 57 | 0 | 53.9 | 49.5 | 0.00 | 0.00 | 0.00 | ||
| 20260503200002 | 59 | 0 | 53.9 | 51.3 | 0.00 | 0.00 | 0.00 | ||
| 20260503195402 | 57 | 0 | 53.9 | 49.5 | 0.00 | 0.00 | 0.00 | ||
| 20260503194802 | 57 | 0 | 53.9 | 49.5 | 0.00 | 0.00 | 0.00 | ||
| 20260503194202 | 58 | 0 | 53.9 | 50.4 | 0.00 | 0.00 | 0.00 | ||
| 20260503193602 | 59 | 0 | 53.9 | 51.3 | 0.00 | 0.00 | 0.00 | ||
| 20260503193001 | 59 | 0 | 53.9 | 51.3 | 0.00 | 0.00 | 0.00 | ||
| 20260503192402 | 59 | 0 | 53.9 | 51.3 | 0.00 | 0.00 | 0.00 | ||
| 20260503191802 | 60 | 0 | 53.9 | 52.1 | 0.00 | 0.00 | 0.00 | ||
| 20260503191203 | 60 | 0 | 53.9 | 52.1 | 0.00 | 0.00 | 0.00 | ||
| 20260503190601 | 60 | 0 | 53.9 | 52.1 | 0.00 | 0.00 | 0.00 | ||
| 20260503190001 | 58 | 0 | 53.0 | 50.4 | 0.00 | 0.00 | 0.00 | ||
| 20260503185402 | 61 | 0 | 53.0 | 53.0 | 0.00 | 0.00 | 0.00 | ||
| 20260503184802 | 61 | 0 | 53.0 | 53.0 | 0.00 | 0.00 | 0.00 | ||
| 20260503184202 | 62 | 0 | 53.0 | 53.9 | 0.00 | 0.00 | 0.00 | ||
| 20260503183602 | 64 | 0 | 53.0 | 55.6 | 0.00 | 0.00 | 0.00 | ||
| 20260503183002 | 60 | 0 | 53.0 | 52.1 | 0.00 | 0.00 | 0.00 | ||
| 20260503182402 | 62 | 0 | 53.0 | 53.9 | 0.00 | 0.00 | 0.00 | ||
| 20260503181802 | 56 | 0 | 53.0 | 48.7 | 0.00 | 0.00 | 0.00 | ||
| 20260503181202 | 61 | 0 | 53.0 | 53.0 | 0.00 | 0.00 | 0.00 | ||
| 20260503180602 | 60 | 0 | 53.0 | 52.1 | 0.00 | 0.00 | 0.00 | ||
| 20260503180002 | 60 | 0 | 53.0 | 52.1 | 0.00 | 0.00 | 0.00 | ||
| 20260503175403 | 59 | 0 | 53.0 | 51.3 | 0.00 | 0.00 | 0.00 | ||
| 20260503174801 | 60 | 0 | 53.0 | 52.1 | 0.00 | 0.00 | 0.00 |